Wind_Speed
16 15 15 14 13 13 14 14 15 14 15 15 16 16 16 16 17 16 15 14 14 14 15 15 14 14 14 14 14 13 12 13 13 13 12 13 14 14 15 15 15 15 15 16
13 13 13 12 12 13 13 13 13 14 14 14 15 15 15 16 16 15 15 15 15 15 14 13 12 12 12 13 13 11 12 12 12 11 11 12 12 13 13 14 14 15 15 16
13 12 12 12 11 12 12 12 13 14 13 13 13 14 15 15 15 14 14 14 14 13 13 12 11 11 11 11 11 11 10 10 10 10 10 11 11 12 13 14 14 14 14 14
13 12 12 11 11 11 11 11 12 12 12 12 13 13 13 12 11 11 11 12 11 11 11 10 10 10 10 11 10 10 10 10 10 10 11 11 11 12 13 13 13 13 13 13
12 11 11 10 10 10 10 10 11 10 11 12 13 12 10 10 10 9 9 9 8 8 9 9 10 9 9 10 10 10 10 10 10 10 9 10 11 12 12 12 13 12 13 13
12 11 11 10 10 10 10 9 10 9 10 11 11 10 8 8 8 7 7 7 6 7 8 8 8 8 8 9 9 9 10 9 9 9 9 10 10 11 11 12 12 13 13 14
11 10 10 10 10 9 9 8 9 9 10 10 10 9 7 8 7 6 6 6 6 6 7 7 7 7 8 8 8 9 9 9 9 8 8 9 10 10 11 11 12 12 13 14
12 10 9 10 10 9 9 9 9 8 8 8 8 7 7 7 6 5 5 5 5 5 6 6 6 7 7 8 8 8 8 8 7 7 8 9 9 10 10 11 11 12 13 14
11 10 10 10 10 10 9 9 8 8 8 7 7 6 6 6 5 5 4 4 5 4 4 5 5 6 6 7 7 7 7 6 6 7 8 9 9 9 10 11 11 12 13 13
11 10 11 10 10 10 9 9 9 8 7 7 7 6 5 5 4 4 4 4 4 4 4 4 4 4 4 5 5 5 5 5 5 6 7 8 8 9 10 10 11 12 13 15
11 11 11 11 11 9 9 9 8 7 7 6 6 5 4 3 3 3 3 3 3 3 3 3 3 4 4 5 5 4 4 5 5 5 7 8 8 9 10 11 12 13 14 16
11 11 12 11 11 9 8 8 7 7 6 6 6 6 4 3 2 2 2 2 3 3 2 2 3 4 4 4 4 4 4 5 5 6 7 8 9 10 11 12 13 14 15 17
10 11 12 11 10 9 8 9 8 8 7 6 6 5 5 4 3 2 2 3 3 3 2 2 2 3 4 4 4 4 4 5 6 7 7 8 10 11 12 12 13 15 16 17
10 10 11 11 11 10 9 9 9 7 7 6 6 5 5 4 4 3 2 3 2 2 2 2 2 2 3 4 5 5 5 6 6 7 8 10 11 11 12 13 14 16 17 19
9 9 9 10 9 10 10 9 8 8 7 7 7 6 5 5 4 3 3 2 1 1 1 1 1 1 2 3 4 4 5 6 7 8 9 10 11 12 13 14 16 17 18 20
9 8 9 10 9 10 10 9 9 9 8 8 7 6 5 5 4 3 3 2 2 1 1 1 1 1 2 3 4 4 5 6 7 8 9 11 12 13 14 15 16 18 20 21
10 10 10 10 9 9 9 9 8 8 8 8 8 7 6 6 5 4 3 2 2 1 1 0 1 1 2 2 3 4 5 6 7 9 10 11 13 14 15 16 18 19 21 23
10 10 10 10 10 9 9 9 8 8 8 9 9 8 7 7 6 5 4 3 2 2 1 1 1 1 1 2 3 4 5 6 8 9 10 11 13 15 16 17 19 21 23 25
11 11 10 10 10 9 9 9 9 9 9 9 9 9 8 8 7 5 5 4 3 3 2 2 2 2 2 3 3 4 5 7 8 9 11 12 14 15 17 19 20 22 24 26
11 10 11 11 10 9 9 9 9 9 9 9 9 9 9 8 7 6 5 4 3 2 2 2 2 2 2 3 3 4 6 7 8 9 11 13 14 16 18 20 22 23 25 27
10 10 10 11 11 10 9 9 9 9 9 10 9 9 8 8 7 6 5 4 3 3 2 2 1 1 2 2 4 5 6 7 8 10 12 14 16 18 19 21 23 25 26 28
12 11 11 11 11 10 9 9 9 9 10 9 9 9 8 8 7 6 5 4 3 3 2 2 1 1 1 3 4 5 6 7 8 10 13 15 17 19 21 22 24 25 27 29
12 12 12 12 12 11 10 9 9 10 9 9 10 9 9 8 7 6 5 5 4 3 3 2 2 2 2 3 5 6 7 9 10 12 13 16 18 19 21 23 24 26 28 29
13 14 13 12 12 11 11 10 10 9 9 9 10 10 9 8 7 6 5 5 4 4 3 2 1 2 3 4 6 7 8 10 11 12 14 17 19 20 22 23 25 27 29 30
14 14 14 13 13 12 11 10 10 10 9 9 10 10 9 8 7 6 5 5 4 3 2 1 1 2 3 5 6 8 9 11 12 14 15 17 19 21 22 24 26 28 29 30
14 15 15 14 13 13 12 11 10 10 10 10 10 10 9 8 7 7 6 5 4 3 2 1 1 3 4 6 7 8 10 11 13 15 16 18 20 21 23 24 26 28 29 31
15 15 15 15 14 14 13 12 11 10 10 10 10 10 9 8 8 8 7 6 4 3 2 2 2 3 4 6 7 9 11 12 14 16 18 19 21 22 23 25 27 28 30 31
Wind_Direction
282 279 275 274 273 276 279 282 285 283 284 288 288 289 289 289 286 281 276 270 270 273 277 275 277 278 279 281 280 279 282 284 287 291 294 297 301 304 307 310 312 313 312 313
282 279 277 280 278 279 279 283 286 286 287 291 292 290 288 289 288 283 280 275 273 276 278 277 278 281 282 283 281 279 282 283 288 291 293 298 304 307 310 312 314 317 315 314
281 277 275 280 280 280 279 280 286 287 288 289 293 294 293 293 292 289 283 279 276 274 276 279 281 284 282 285 284 287 286 287 287 289 296 305 307 310 311 313 315 317 316 315
278 274 273 279 280 281 282 284 287 286 287 292 297 298 295 296 295 289 282 277 272 268 271 277 283 283 281 284 286 287 289 288 284 291 295 301 306 309 313 316 319 319 318 319
283 278 276 278 279 282 286 287 288 286 286 292 295 294 293 293 297 293 286 282 273 268 272 276 283 286 285 290 292 293 294 298 296 295 299 301 302 307 314 316 319 320 322 323
283 281 281 278 280 287 288 289 288 286 288 292 292 290 287 288 293 295 295 293 280 272 278 282 287 291 291 294 293 296 299 298 301 298 301 306 306 307 312 316 319 320 322 321
281 280 280 279 282 279 281 286 286 282 286 293 290 290 282 279 285 288 295 290 278 274 280 288 291 293 292 295 299 304 308 304 307 306 307 311 312 314 314 316 319 321 322 322
280 278 281 275 276 277 282 287 288 285 286 290 289 281 278 275 279 286 293 290 280 280 285 293 294 296 297 300 305 309 308 310 309 309 312 316 317 319 319 319 320 323 324 324
277 280 280 273 269 272 279 283 280 276 281 279 274 271 277 277 277 283 291 298 294 292 298 301 301 301 299 305 311 314 310 311 309 308 313 320 322 323 323 326 325 327 329 331
271 271 269 270 270 273 273 273 270 272 279 278 273 267 267 278 276 282 290 303 302 291 298 300 301 307 313 318 320 322 319 319 318 319 321 325 327 331 332 332 331 332 334 337
270 265 261 266 270 268 266 269 264 265 269 271 267 264 266 269 270 274 294 301 302 303 307 311 317 326 333 338 339 337 335 333 330 332 336 335 338 340 339 337 336 337 339 338
270 260 258 262 262 256 256 259 261 261 263 264 267 259 253 251 252 273 291 302 307 308 317 329 338 347 350 351 348 344 342 343 346 349 348 344 340 337 336 336 339 340 339 338
270 262 260 264 258 254 254 255 256 255 257 258 261 256 244 239 240 260 290 315 326 326 315 330 351 5 14 13 7 3 359 355 354 353 351 347 343 342 340 338 339 338 338 339
271 269 260 255 256 256 253 249 247 248 247 247 245 241 232 227 230 252 283 307 319 337 344 349 354 7 13 11 11 10 8 0 353 352 348 347 347 347 346 343 341 339 338 337
270 268 262 252 254 252 247 241 239 240 240 233 227 228 225 219 229 253 279 301 306 300 328 352 352 358 359 2 7 8 0 357 354 354 354 354 352 348 348 348 346 344 341 340
262 264 259 254 254 247 244 237 237 235 232 227 220 219 219 223 234 251 269 284 281 260 282 333 345 340 345 353 1 5 3 356 352 352 352 351 350 348 347 346 344 344 344 343
261 261 260 255 246 245 246 242 236 232 228 222 218 217 219 225 231 238 242 248 250 231 245 321 346 344 359 5 4 7 6 360 355 351 348 346 346 346 346 345 345 345 344 343
260 257 256 252 242 238 241 239 233 228 227 222 219 220 222 220 221 228 228 232 243 246 266 294 314 320 329 349 357 358 355 350 346 346 346 347 348 347 347 347 346 345 344 343
260 256 249 245 237 237 237 234 231 231 226 222 222 222 216 210 210 217 225 234 245 255 268 284 292 295 310 326 338 342 344 343 344 345 346 346 348 349 348 347 346 344 344 344
259 251 242 235 230 232 236 237 232 224 218 218 217 214 208 205 210 217 220 227 234 247 266 275 281 292 311 326 334 338 343 346 346 346 345 346 347 348 347 346 346 345 345 345
251 243 234 224 226 232 235 233 224 214 210 209 208 205 202 202 205 210 215 218 220 229 236 241 258 290 315 333 342 346 349 348 347 347 347 346 345 346 347 347 347 347 346 346
242 235 224 222 223 225 227 223 216 211 207 207 207 204 201 201 206 211 211 210 212 218 218 224 245 271 303 331 341 344 344 343 343 344 345 346 346 347 348 348 348 348 348 348
234 227 220 218 215 216 219 217 214 210 208 207 207 206 204 204 206 204 203 205 208 208 211 222 249 277 302 322 335 342 345 343 342 343 345 345 346 347 348 348 349 349 349 348
225 218 214 212 212 214 216 216 214 208 205 203 201 200 201 199 196 196 197 197 195 199 205 218 266 302 318 325 332 339 344 343 342 342 342 343 345 347 348 349 349 349 349 349
221 215 213 213 212 210 210 209 206 199 197 195 191 190 189 188 187 186 187 187 186 186 195 226 285 316 326 330 332 336 340 343 343 343 343 344 346 347 348 348 349 349 349 349
218 213 212 212 210 207 204 201 198 195 193 191 190 188 186 187 188 187 185 184 185 187 192 246 307 322 329 332 334 338 341 343 344 344 343 344 345 346 347 348 348 348 349 349
217 214 211 211 208 205 202 198 197 195 193 192 190 188 187 187 189 190 192 196 203 210 225 268 303 323 333 336 336 338 340 342 343 343 343 344 344 345 347 347 348 348 349 349
Height
5772 5772 5771 5772 5772 5773 5772 5772 5771 5771 5770 5770 5769 5768 5767 5766 5765 5764 5764 5763 5763 5763 5763 5763 5762 5762 5761 5761 5760 5760 5760 5759 5758 5757 5756 5755 5754 5753 5751 5749 5747 5744 5742 5741
5769 5769 5768 5768 5769 5769 5769 5768 5768 5767 5767 5766 5764 5763 5763 5762 5761 5760 5760 5759 5759 5759 5759 5759 5759 5758 5758 5757 5757 5756 5756 5756 5755 5754 5753 5752 5751 5749 5748 5746 5743 5741 5739 5737
5765 5765 5765 5766 5766 5766 5766 5765 5764 5763 5763 5762 5761 5760 5759 5758 5757 5756 5755 5755 5755 5755 5755 5755 5755 5755 5754 5754 5754 5753 5753 5752 5752 5751 5750 5749 5748 5746 5745 5743 5740 5738 5736 5734
5761 5763 5763 5765 5763 5763 5763 5762 5761 5760 5760 5759 5758 5756 5755 5754 5753 5752 5752 5752 5751 5751 5752 5752 5752 5752 5751 5751 5751 5750 5750 5749 5748 5747 5747 5746 5745 5743 5742 5740 5737 5735 5733 5731
5758 5758 5759 5761 5760 5759 5760 5759 5758 5758 5757 5756 5755 5754 5753 5751 5750 5750 5750 5749 5748 5749 5749 5749 5750 5749 5749 5748 5748 5747 5747 5746 5745 5744 5743 5743 5742 5741 5739 5737 5735 5733 5730 5728
5756 5756 5756 5758 5757 5757 5758 5757 5756 5755 5755 5754 5753 5752 5752 5750 5749 5748 5748 5747 5747 5747 5747 5748 5748 5747 5747 5746 5745 5744 5744 5743 5742 5741 5741 5740 5739 5738 5736 5734 5732 5730 5727 5725
5754 5754 5754 5755 5754 5755 5756 5756 5754 5753 5752 5752 5751 5750 5750 5748 5747 5747 5746 5745 5745 5745 5746 5745 5745 5745 5744 5743 5743 5742 5741 5740 5739 5739 5738 5737 5736 5735 5733 5731 5729 5727 5725 5722
5751 5752 5754 5752 5752 5753 5753 5752 5751 5750 5750 5750 5749 5748 5748 5747 5746 5745 5745 5745 5744 5744 5744 5743 5743 5743 5742 5741 5741 5740 5739 5738 5737 5737 5736 5735 5734 5732 5731 5729 5726 5724 5722 5720
5750 5752 5750 5749 5749 5750 5750 5750 5749 5749 5748 5748 5748 5747 5746 5746 5745 5744 5744 5744 5743 5743 5742 5742 5742 5741 5740 5740 5739 5738 5737 5736 5735 5735 5734 5733 5732 5730 5729 5727 5725 5723 5720 5718
5747 5748 5747 5747 5747 5748 5748 5748 5747 5747 5747 5747 5746 5746 5745 5745 5744 5744 5743 5743 5742 5742 5742 5741 5741 5740 5739 5738 5738 5737 5736 5735 5734 5734 5733 5732 5730 5729 5727 5725 5723 5721 5718 5715
5744 5745 5745 5745 5745 5745 5746 5745 5745 5746 5745 5745 5745 5745 5744 5744 5744 5743 5743 5742 5742 5742 5741 5741 5740 5739 5739 5738 5737 5736 5735 5735 5734 5733 5732 5731 5729 5727 5726 5724 5721 5719 5716 5713
5741 5742 5742 5743 5743 5743 5744 5744 5744 5744 5744 5744 5744 5744 5744 5744 5743 5743 5743 5742 5742 5741 5741 5740 5739 5739 5738 5737 5737 5736 5735 5735 5734 5733 5731 5730 5728 5727 5724 5722 5720 5717 5714 5711
5738 5739 5740 5741 5741 5741 5742 5742 5742 5743 5743 5743 5743 5743 5743 5743 5743 5743 5743 5742 5741 5741 5740 5740 5739 5739 5738 5737 5736 5736 5735 5734 5733 5732 5731 5730 5728 5726 5724 5721 5718 5716 5713 5709
5736 5736 5737 5738 5739 5740 5740 5740 5740 5741 5741 5741 5742 5742 5742 5742 5743 5743 5742 5742 5741 5741 5740 5740 5739 5739 5738 5738 5737 5736 5735 5734 5733 5732 5731 5729 5727 5725 5723 5720 5717 5714 5711 5707
5734 5734 5735 5736 5736 5737 5737 5737 5738 5739 5739 5740 5740 5741 5741 5741 5742 5742 5742 5741 5741 5741 5740 5739 5739 5739 5738 5738 5737 5736 5735 5734 5733 5732 5731 5729 5727 5724 5722 5719 5716 5713 5710 5706
5732 5732 5733 5733 5734 5734 5735 5736 5736 5737 5738 5738 5739 5739 5740 5740 5741 5741 5741 5741 5740 5740 5740 5739 5739 5739 5738 5737 5737 5736 5735 5734 5733 5732 5730 5728 5726 5724 5721 5718 5715 5711 5708 5704
5729 5730 5730 5731 5732 5732 5733 5733 5734 5735 5736 5737 5737 5738 5738 5739 5739 5740 5740 5740 5740 5740 5739 5739 5739 5738 5738 5737 5737 5736 5735 5734 5733 5731 5730 5728 5725 5723 5720 5717 5713 5710 5706 5701
5726 5727 5727 5728 5729 5730 5731 5732 5732 5733 5734 5734 5735 5736 5737 5737 5738 5739 5739 5739 5739 5739 5739 5739 5738 5738 5737 5737 5737 5736 5735 5734 5733 5731 5729 5727 5724 5722 5719 5715 5712 5708 5703 5699
5723 5724 5724 5725 5727 5728 5729 5729 5730 5731 5731 5732 5733 5734 5735 5736 5737 5738 5738 5738 5738 5738 5738 5738 5737 5737 5737 5737 5736 5735 5735 5733 5732 5731 5729 5726 5724 5721 5717 5714 5710 5706 5701 5696
5720 5721 5721 5723 5724 5726 5727 5728 5728 5729 5730 5731 5732 5733 5734 5734 5735 5736 5737 5737 5737 5737 5737 5737 5737 5736 5736 5736 5735 5735 5734 5733 5732 5730 5728 5726 5723 5720 5716 5712 5708 5704 5699 5693
5718 5718 5719 5721 5722 5724 5725 5725 5726 5727 5728 5729 5730 5731 5732 5733 5734 5735 5736 5736 5737 5737 5737 5737 5736 5736 5736 5735 5735 5734 5733 5732 5731 5729 5727 5725 5722 5718 5715 5710 5706 5701 5696 5691
5716 5717 5718 5719 5721 5722 5723 5724 5725 5726 5727 5728 5729 5730 5731 5732 5733 5734 5735 5735 5736 5736 5736 5736 5736 5736 5735 5735 5734 5734 5733 5731 5730 5728 5726 5723 5720 5717 5713 5709 5704 5699 5694 5689
5713 5715 5716 5717 5719 5720 5721 5722 5724 5725 5725 5727 5728 5729 5730 5731 5732 5733 5734 5734 5735 5735 5735 5735 5735 5735 5735 5734 5734 5733 5732 5730 5729 5727 5725 5722 5719 5715 5711 5707 5702 5697 5692 5687
5711 5713 5714 5716 5717 5719 5720 5721 5722 5723 5724 5725 5726 5727 5729 5730 5731 5732 5733 5733 5734 5734 5735 5735 5735 5735 5735 5734 5733 5732 5731 5729 5728 5726 5723 5721 5717 5714 5709 5705 5701 5696 5690 5685
5709 5711 5712 5714 5715 5717 5718 5720 5721 5722 5723 5724 5725 5727 5728 5729 5730 5731 5732 5733 5733 5734 5734 5734 5735 5735 5734 5734 5733 5731 5730 5729 5727 5725 5722 5719 5716 5712 5708 5703 5699 5694 5688 5683
5706 5708 5710 5712 5713 5715 5717 5719 5720 5721 5722 5723 5725 5726 5727 5729 5730 5731 5732 5733 5734 5734 5734 5734 5734 5734 5734 5733 5732 5731 5730 5728 5726 5723 5721 5718 5714 5710 5706 5702 5697 5692 5686 5681
5704 5706 5707 5709 5711 5713 5715 5717 5719 5720 5721 5723 5724 5726 5727 5728 5729 5731 5732 5733 5734 5734 5734 5734 5734 5734 5733 5733 5732 5730 5729 5727 5725 5722 5719 5716 5713 5709 5704 5700 5695 5690 5684 5678